Tracking 19817 objects as of 19-Aug-2019
HD Live streaming from Space Station
objects crossing your sky now

SL-16 DEB

Track SL-16 DEB now!
10-day predictions


NORAD ID: 42235
Int'l Code: 1993-016CP
Perigee: 746.0 km
Apogee: 950.9 km
Inclination: 71.0 °
Period: 101.7 minutes
Semi major axis: 7219 km
RCS: Unknown
Launch date: March 26, 1993
Source: Commonwealth of Independent States (former USSR) (CIS)
Launch site: PLESETSK MISSILE AND SPACE COMPLEX (PKMTR)

Note: This is SATELLITE DEBRIS
aabbcc
Your satellite tracking list
Your tracking list is empty




NASA's NSSDC Master Catalog

Two Line Element Set (TLE):
1 42235U 93016CP  19230.79986277 +.00000627 +00000-0 +31391-3 0  9990
2 42235 070.9959 293.9153 0141905 087.5582 274.1778 14.15284755762513
Source of the keplerian elements: AFSPC